IZ1PKI Weather Reports


Display with metric or nautical units.
time (UTC)temp
F
wind
direction
speed
MPH
gust
MPH
rain 1hr
in
rain 24hr
in
rain mn
in
humidity
%
barometer
mb
20260506194321 59 0 2.0 6.0 0.00 1.37 0.00 82 1013.5
20260506193818 60 0 5.0 9.0 0.00 1.37 0.00 82 1013.4
20260506193318 60 0 2.0 10.0 0.00 1.37 0.00 82 1013.4
20260506192821 60 0 5.0 8.0 0.00 1.37 0.00 82 1013.4
20260506192318 60 0 4.0 8.0 0.00 1.37 0.00 83 1013.3
20260506191824 60 0 2.0 10.0 0.00 1.37 0.00 83 1013.3
20260506191324 60 0 1.0 5.0 0.00 1.37 0.00 83 1013.3
20260506190824 60 0 2.0 8.0 0.00 1.37 0.00 83 1013.2
20260506190324 60 0 4.0 8.0 0.00 1.37 0.00 83 1013.1
20260506185818 60 0 3.0 4.0 0.00 1.37 0.00 84 1013.1
20260506185327 60 0 2.0 6.0 0.00 1.37 0.00 84 1013.0
20260506184818 60 0 1.0 10.0 0.00 1.37 0.00 84 1013.1
20260506184321 60 0 2.0 10.0 0.00 1.37 0.00 84 1013.1
20260506183821 60 0 2.0 8.0 0.00 1.37 0.00 84 1012.9
20260506183321 60 0 3.0 6.0 0.00 1.37 0.00 84 1012.9
20260506182821 60 0 2.0 9.0 0.00 1.37 0.00 84 1012.9
20260506182318 60 0 3.0 12.0 0.00 1.37 0.00 84 1012.8
20260506181821 60 0 1.0 11.0 0.00 1.37 0.00 85 1012.7
20260506181324 60 0 4.0 12.0 0.00 1.37 0.00 85 1012.6
20260506180824 60 0 2.0 6.0 0.00 1.37 0.00 85 1012.4
20260506180321 60 0 2.0 6.0 0.00 1.37 0.00 85 1012.3
20260506175821 60 0 6.0 6.0 0.00 1.37 0.00 85 1012.3
20260506175318 60 0 0.0 6.0 0.00 1.37 0.00 85 1012.2
20260506174818 60 0 2.0 8.0 0.00 1.37 0.00 85 1012.3
20260506174321 60 0 9.0 9.0 0.00 1.37 0.00 85 1012.3
20260506173821 60 0 6.0 11.0 0.00 1.37 0.00 85 1012.3
20260506173321 60 0 2.0 10.0 0.00 1.37 0.00 84 1012.2
20260506172818 60 0 2.0 13.0 0.00 1.37 0.00 84 1012.2
20260506172318 60 0 3.0 11.0 0.00 1.37 0.00 84 1012.1
20260506171818 60 0 3.0 12.0 0.00 1.37 0.00 83 1012.0
20260506171327 60 0 3.0 9.0 0.00 1.37 0.00 83 1012.1
20260506170818 60 0 5.0 10.0 0.00 1.37 0.00 83 1012.1
20260506170318 60 0 6.0 10.0 0.00 1.37 0.00 83 1012.0
20260506165821 61 0 2.0 11.0 0.00 1.37 0.00 82 1012.0
20260506165318 61 0 3.0 6.0 0.00 1.37 0.00 82 1012.0
20260506164818 61 0 6.0 10.0 0.00 1.37 0.00 82 1012.1
20260506164321 61 0 2.0 9.0 0.00 1.37 0.00 81 1012.1
20260506163824 61 0 3.0 12.0 0.00 1.37 0.00 81 1012.2
20260506163318 61 0 5.0 10.0 0.00 1.37 0.00 81 1012.0
20260506162818 61 0 6.0 13.0 0.00 1.37 0.00 80 1012.1
20260506162318 62 0 6.0 10.0 0.00 1.37 0.00 81 1012.0
20260506161818 62 0 6.0 10.0 0.00 1.37 0.00 81 1012.0
20260506161318 62 0 10.0 12.0 0.00 1.37 0.00 81 1012.1
20260506160818 62 0 3.0 11.0 0.00 1.37 0.00 82 1012.0
20260506160318 62 0 3.0 10.0 0.00 1.37 0.00 82 1012.0
20260506155818 62 0 2.0 9.0 0.00 1.37 0.00 83 1011.9
20260506155321 62 0 6.0 11.0 0.00 1.37 0.00 82 1011.9
20260506154827 62 0 3.0 9.0 0.00 1.37 0.00 82 1011.9
20260506154318 62 0 3.0 6.0 0.00 1.37 0.00 82 1012.0
20260506153818 62 0 2.0 8.0 0.00 1.37 0.00 82 1011.9
20260506153318 63 0 2.0 11.0 0.00 1.37 0.00 81 1011.9
20260506152821 63 0 3.0 12.0 0.00 1.37 0.00 81 1011.9
20260506152321 63 0 4.0 9.0 0.00 1.37 0.00 81 1011.9
20260506151824 64 0 1.0 10.0 0.00 1.37 0.00 80 1012.0
20260506151321 64 0 4.0 12.0 0.00 1.37 0.00 80 1011.9
20260506150821 64 0 2.0 8.0 0.00 1.37 0.00 80 1012.0
20260506150327 64 0 4.0 14.0 0.00 1.37 0.00 81 1011.9
20260506145824 64 0 5.0 11.0 0.00 1.37 0.00 80 1011.9
20260506145324 64 0 4.0 10.0 0.00 1.37 0.00 79 1011.8
20260506144818 64 0 10.0 13.0 0.00 1.37 0.00 78 1011.8
20260506144318 64 0 4.0 12.0 0.00 1.37 0.00 79 1011.8
20260506143818 64 0 4.0 13.0 0.00 1.37 0.00 80 1011.7
20260506143318 64 0 3.0 11.0 0.00 1.37 0.00 80 1011.8
20260506142824 64 0 3.0 12.0 0.00 1.37 0.00 80 1011.8
20260506142321 64 0 4.0 14.0 0.00 1.37 0.00 81 1011.7
20260506141821 64 0 4.0 13.0 0.00 1.37 0.00 80 1011.8
20260506141318 64 0 6.0 16.0 0.00 1.37 0.00 79 1011.8
20260506140821 63 0 4.0 14.0 0.00 1.37 0.00 80 1011.8
20260506140318 64 0 5.0 13.0 0.00 1.37 0.00 80 1011.9
20260506135818 64 0 3.0 8.0 0.00 1.37 0.00 80 1011.9
20260506135327 64 0 3.0 12.0 0.00 1.37 0.00 79 1011.9
20260506134821 64 0 4.0 11.0 0.00 1.37 0.00 80 1012.0
20260506134324 64 0 3.0 11.0 0.00 1.37 0.00 79 1012.0
20260506133818 64 0 4.0 13.0 0.00 1.37 0.00 79 1012.0
20260506133318 64 0 4.0 11.0 0.00 1.37 0.00 79 1012.1
20260506132821 64 0 3.0 9.0 0.00 1.37 0.00 79 1012.1
20260506132321 64 0 4.0 12.0 0.00 1.37 0.00 80 1012.0
20260506131818 64 0 6.0 13.0 0.00 1.37 0.00 80 1012.1
20260506131321 64 0 9.0 12.0 0.00 1.37 0.00 81 1012.1
20260506130824 63 0 5.0 13.0 0.00 1.37 0.00 81 1012.0
20260506130321 63 0 6.0 10.0 0.00 1.37 0.00 82 1011.9
20260506125821 63 0 2.0 11.0 0.00 1.37 0.00 82 1012.0
20260506125324 63 0 5.0 12.0 0.00 1.37 0.00 82 1012.0
20260506124821 63 0 2.0 14.0 0.00 1.37 0.00 83 1011.9
20260506124318 63 0 11.0 15.0 0.00 1.37 0.00 83 1011.9
20260506123818 64 0 4.0 13.0 0.00 1.37 0.00 83 1011.8
20260506123318 64 0 5.0 12.0 0.00 1.37 0.00 83 1011.8
20260506122818 64 0 4.0 12.0 0.00 1.37 0.00 83 1011.7
20260506122321 64 0 4.0 12.0 0.00 1.37 0.00 84 1011.8
20260506121821 63 0 3.0 15.0 0.00 1.37 0.00 84 1011.7
20260506121321 64 0 8.0 14.0 0.00 1.37 0.00 85 1011.7
20260506120818 64 0 6.0 15.0 0.00 1.37 0.00 86 1011.6
20260506120318 63 0 4.0 10.0 0.00 1.37 0.00 86 1011.6
20260506115818 63 0 8.0 13.0 0.00 1.37 0.00 87 1011.6
20260506115318 63 0 6.0 14.0 0.00 1.37 0.00 87 1011.6
20260506114824 63 0 6.0 11.0 0.00 1.37 0.00 87 1011.5
20260506114321 62 0 2.0 14.0 0.00 1.37 0.00 87 1011.6
20260506113818 63 0 6.0 14.0 0.00 1.37 0.00 87 1011.6
20260506113321 63 0 4.0 11.0 0.00 1.37 0.00 87 1011.6
20260506112818 62 0 2.0 10.0 0.00 1.37 0.00 88 1011.6
20260506112324 62 0 2.0 12.0 0.00 1.37 0.00 88 1011.6
20260506111818 62 0 3.0 11.0 0.00 1.37 0.00 88 1011.5
20260506111318 62 0 3.0 11.0 0.00 1.37 0.00 88 1011.6
20260506110818 62 0 4.0 10.0 0.00 1.37 0.00 88 1011.6
20260506110321 62 0 3.0 11.0 0.00 1.37 0.00 88 1011.7
20260506105818 62 0 3.0 10.0 0.00 1.37 0.00 87 1011.7
20260506105318 62 0 5.0 11.0 0.00 1.37 0.00 87 1011.6
20260506104818 62 0 9.0 11.0 0.00 1.37 0.00 87 1011.6
20260506104318 62 0 5.0 12.0 0.00 1.37 0.00 87 1011.6
20260506103824 62 0 5.0 13.0 0.00 1.37 0.00 87 1011.6
20260506103318 62 0 2.0 8.0 0.00 1.37 0.00 88 1011.6
20260506102824 62 0 2.0 10.0 0.00 1.37 0.00 87 1011.5
20260506102321 62 0 9.0 9.0 0.00 1.37 0.00 86 1011.6
20260506101821 62 0 5.0 11.0 0.00 1.37 0.00 86 1011.5
20260506101321 62 0 6.0 11.0 0.00 1.37 0.00 85 1011.6
20260506100824 63 0 5.0 11.0 0.00 1.37 0.00 86 1011.6
20260506100321 62 0 2.0 14.0 0.00 1.37 0.00 87 1011.6
20260506095818 62 0 3.0 9.0 0.00 1.37 0.00 88 1011.5
20260506095318 61 0 3.0 9.0 0.00 1.37 0.00 88 1011.5
20260506094824 61 0 1.0 10.0 0.00 1.37 0.00 87 1011.4
20260506094324 61 0 3.0 9.0 0.00 1.37 0.00 87 1011.5
20260506093818 61 0 8.0 11.0 0.00 1.37 0.00 86 1011.6
20260506093321 61 0 3.0 11.0 0.00 1.38 0.00 87 1011.5
20260506092818 61 0 3.0 6.0 0.00 1.38 0.00 88 1011.5
20260506092318 61 0 3.0 6.0 0.00 1.38 0.00 89 1011.4
20260506091827 61 0 3.0 8.0 0.00 1.38 0.00 89 1011.4
20260506091321 60 0 4.0 9.0 0.00 1.38 0.00 90 1011.3
20260506090818 60 0 4.0 6.0 0.00 1.38 0.00 91 1011.3
20260506090321 59 0 2.0 5.0 0.00 1.38 0.00 91 1011.2
20260506085821 59 0 3.0 5.0 0.00 1.38 0.00 91 1011.2
20260506085327 59 0 4.0 9.0 0.00 1.38 0.00 91 1011.1
20260506084821 59 0 1.0 8.0 0.00 1.38 0.00 92 1011.2
20260506084321 59 0 3.0 11.0 0.00 1.38 0.00 93 1011.0
20260506083818 59 0 4.0 8.0 0.00 1.38 0.00 93 1010.9
20260506083321 59 0 3.0 6.0 0.00 1.38 0.00 93 1010.9
20260506082821 59 0 1.0 9.0 0.00 1.38 0.00 93 1010.8
20260506082318 59 0 3.0 8.0 0.00 1.38 0.00 93 1010.7
20260506081818 59 0 2.0 10.0 0.00 1.38 0.00 94 1010.8
20260506081324 60 0 8.0 9.0 0.00 1.38 0.00 94 1010.8
20260506080821 59 0 2.0 10.0 0.00 1.38 0.00 94 1010.8
20260506080318 59 0 4.0 9.0 0.00 1.38 0.00 94 1010.8
20260506073318 60 0 3.0 17.0 0.27 1.38 0.00 94 1010.4
20260506072821 60 0 6.0 19.0 0.27 1.38 0.00 94 1010.5
20260506072318 60 0 5.0 13.0 0.27 1.38 0.00 94 1010.3
20260506071818 60 0 2.0 13.0 0.28 1.38 0.00 94 1010.3
20260506071321 60 0 1.0 18.0 0.28 1.38 0.00 93 1010.4
20260506070818 60 0 4.0 16.0 0.28 1.38 0.00 93 1010.3
20260506070321 60 0 3.0 15.0 0.28 1.38 0.00 93 1010.1
20260506062321 59 0 1.0 10.0 0.00 1.11 0.00 91 1009.8
20260506061821 59 0 2.0 11.0 0.00 1.11 0.00 91 1009.9
20260506061321 59 0 4.0 6.0 0.00 1.12 0.00 91 1009.9
20260506060821 58 0 1.0 11.0 0.00 1.14 0.00 90 1009.8
20260506060324 58 0 1.0 8.0 0.00 1.15 0.00 90 1009.9
20260506051321 57 0 2.0 6.0 0.00 1.48 0.00 88 1010.2
20260506050818 56 0 1.0 5.0 0.00 1.51 0.00 89 1010.3
20260506050318 56 0 3.0 4.0 0.00 1.52 0.00 88 1010.1
20260506044821 56 0 6.0 14.0 0.00 1.59 0.00 88 1010.0
20260506044327 56 0 2.0 11.0 0.00 1.59 0.00 88 1010.1
20260506043821 56 0 5.0 11.0 0.00 1.62 0.00 88 1010.2
20260506043318 56 0 4.0 9.0 0.00 1.68 0.00 88 1010.4
20260506042821 56 0 1.0 8.0 0.00 1.72 0.00 87 1010.5
20260506042321 56 0 2.0 9.0 0.00 1.76 0.00 87 1010.3
20260506041827 56 0 2.0 5.0 0.00 1.81 0.00 86 1010.7
20260506041318 56 0 2.0 3.0 0.00 1.85 0.00 86 1011.0
20260506040818 56 0 1.0 2.0 0.00 1.88 0.00 85 1011.2
20260506040318 56 0 2.0 9.0 0.00 1.96 0.00 85 1011.2
20260506035821 57 0 3.0 8.0 0.00 2.06 0.00 84 1011.1
20260506035318 57 0 5.0 11.0 0.00 2.07 0.00 83 1011.0
20260506034818 57 0 4.0 12.0 0.00 2.08 0.00 83 1011.0
20260506034318 57 0 10.0 15.0 0.00 2.11 0.00 83 1010.6
20260506033818 56 0 9.0 14.0 0.01 2.11 0.00 84 1010.6
20260506033318 57 0 6.0 13.0 0.01 2.12 0.00 84 1010.8
20260506032821 57 0 6.0 13.0 0.02 2.14 0.00 84 1010.7
20260506032318 57 0 11.0 13.0 0.03 2.17 0.00 84 1010.6
20260506031818 56 0 3.0 19.0 0.03 2.19 0.00 84 1010.5
20260506031318 56 0 9.0 15.0 0.03 2.22 0.00 85 1010.5
20260506030824 57 0 3.0 22.0 0.06 2.25 0.00 85 1010.8
20260506030318 56 0 12.0 22.0 0.09 2.27 0.00 85 1010.9
20260506025821 56 0 12.0 20.0 0.14 2.27 0.00 85 1010.9
20260506025324 56 0 3.0 16.0 0.18 2.28 0.00 84 1011.1
20260506024818 56 0 4.0 15.0 0.20 2.29 0.00 84 1011.3
20260506024321 56 0 5.0 13.0 0.25 2.29 0.00 86 1011.5
20260506023821 56 0 8.0 13.0 0.33 2.29 0.00 88 1011.7
20260506023318 56 0 4.0 15.0 0.47 2.31 0.00 89 1011.7
20260506022818 55 0 3.0 15.0 0.59 2.32 0.00 90 1011.7
20260506022321 55 0 3.0 16.0 0.67 2.31 0.00 90 1011.9
20260506021818 54 0 4.0 13.0 0.70 2.32 0.00 90 1011.8
20260506021321 54 0 3.0 11.0 0.73 2.33 0.00 90 1011.8
20260506020818 54 0 5.0 11.0 0.73 2.32 0.00 90 1011.9
20260506020318 55 0 1.0 9.0 0.71 2.29 0.00 90 1012.0
20260506015821 55 0 6.0 10.0 0.66 2.25 0.00 90 1012.0
20260506015318 55 0 2.0 8.0 0.64 2.22 0.00 90 1012.4
20260506014821 55 0 2.0 4.0 0.63 2.20 0.00 90 1012.8
20260506014318 55 0 2.0 3.0 0.60 2.16 0.00 90 1012.9
20260506013821 55 0 3.0 5.0 0.51 2.07 0.00 89 1012.9
20260506013321 56 0 3.0 4.0 0.47 1.95 0.00 89 1013.2
20260506012821 56 0 1.0 2.0 0.37 1.82 0.00 90 1013.2
20260506012318 56 0 1.0 5.0 0.29 1.74 0.00 89 1012.8
20260506011818 56 0 2.0 10.0 0.30 1.71 0.00 89 1012.6
20260506011324 58 0 4.0 9.0 0.30 1.70 0.00 91 1012.6
20260506010818 58 0 3.0 5.0 0.28 1.67 0.00 91 1012.6
20260506010324 58 0 2.0 2.0 0.26 1.66 0.00 91 1012.7
20260506005821 58 0 0.0 1.0 0.25 1.66 0.00 91 1012.7
20260506005324 58 0 0.0 1.0 0.24 1.66 0.00 91 1012.7
20260506004824 58 0 0.0 5.0 0.22 1.65 0.00 91 1012.9
20260506004318 59 0 2.0 5.0 0.21 1.63 0.00 90 1012.9
20260506003821 59 0 1.0 6.0 0.20 1.62 0.00 90 1012.8
20260506003318 59 0 2.0 6.0 0.11 1.54 0.00 90 1012.7
20260506002818 59 0 3.0 8.0 0.08 1.51 0.00 90 1012.6
20260506002327 59 0 1.0 6.0 0.06 1.48 0.00 90 1012.6
20260506001818 60 0 3.0 4.0 0.02 1.44 0.00 91 1012.6
20260506001321 60 0 2.0 4.0 0.00 1.42 0.00 91 1012.5
20260506000818 60 0 0.0 4.0 0.00 1.42 0.00 91 1012.6
20260506000318 60 0 2.0 4.0 0.00 1.42 0.00 91 1012.7
20260505235818 60 0 1.0 3.0 0.00 1.42 0.00 91 1012.9
20260505235324 59 0 2.0 4.0 0.00 1.42 0.00 90 1012.9
20260505234818 59 0 0.0 1.0 0.00 1.42 0.00 90 1012.9
20260505234321 59 0 0.0 8.0 0.00 1.42 0.00 90 1013.2
20260505233824 59 0 0.0 3.0 0.00 1.42 0.00 90 1013.4
20260505233318 59 0 1.0 4.0 0.00 1.42 0.00 89 1013.4
20260505232818 59 0 3.0 6.0 0.00 1.42 0.00 90 1013.5
20260505232318 59 0 0.0 0.0 0.00 1.42 0.00 89 1013.5
20260505231818 59 0 0.0 0.0 0.00 1.42 0.00 89 1013.5
20260505231321 59 0 0.0 0.0 0.00 1.42 0.00 89 1013.7
20260505230818 59 0 0.0 0.0 0.00 1.42 0.00 89 1013.8
20260505230318 59 0 0.0 0.0 0.00 1.42 0.00 89 1013.9
20260505225818 59 0 0.0 0.0 0.00 1.42 0.00 89 1013.8
20260505225318 59 0 0.0 0.0 0.00 1.42 0.00 89 1013.8
20260505224821 59 0 0.0 0.0 0.00 1.42 0.00 89 1013.9
20260505224321 59 0 0.0 4.0 0.00 1.42 0.00 89 1013.9
20260505223818 59 0 0.0 3.0 0.00 1.42 0.00 89 1014.1
20260505223321 59 0 0.0 3.0 0.00 1.42 0.00 89 1014.2
20260505222827 60 0 0.0 3.0 0.00 1.42 0.00 89 1014.1
20260505222318 60 0 1.0 4.0 0.00 1.42 0.00 89 1014.2
20260505221818 60 0 1.0 3.0 0.00 1.42 0.00 89 1014.3
20260505221321 60 0 0.0 1.0 0.00 1.42 0.00 89 1014.2
20260505220824 60 0 0.0 4.0 0.00 1.42 0.00 89 1014.1
20260505220321 60 0 0.0 4.0 0.00 1.42 0.00 89 1014.1
20260505215821 60 0 0.0 3.0 0.00 1.42 0.00 89 1014.2
20260505215318 60 0 1.0 2.0 0.00 1.42 0.00 89 1014.3
20260505214824 60 0 0.0 3.0 0.00 1.42 0.00 89 1014.3
20260505214318 60 0 2.0 2.0 0.00 1.42 0.00 89 1014.5
20260505213818 60 0 0.0 3.0 0.00 1.42 0.00 89 1014.4
20260505213318 60 0 1.0 5.0 0.00 1.42 0.00 89 1014.5
20260505212818 60 0 2.0 4.0 0.00 1.42 0.00 89 1014.5
20260505212321 60 0 2.0 3.0 0.00 1.42 0.00 89 1014.4
20260505211818 60 0 2.0 3.0 0.00 1.42 0.00 89 1014.4
20260505211318 60 0 1.0 3.0 0.00 1.42 0.00 89 1014.4
20260505210824 60 0 1.0 4.0 0.00 1.42 0.00 89 1014.5
20260505210318 60 0 2.0 4.0 0.00 1.42 0.00 89 1014.6
20260505205821 60 0 0.0 5.0 0.00 1.42 0.00 89 1014.6
20260505205321 60 0 1.0 1.0 0.00 1.42 0.00 89 1014.5
20260505204818 60 0 0.0 3.0 0.00 1.42 0.00 89 1014.8
20260505204321 60 0 0.0 4.0 0.00 1.42 0.00 89 1014.8
20260505203818 60 0 2.0 5.0 0.00 1.42 0.00 89 1014.9
20260505203318 60 0 2.0 4.0 0.00 1.42 0.00 89 1014.9
20260505202824 60 0 3.0 5.0 0.00 1.42 0.00 89 1014.8
20260505202321 60 0 1.0 4.0 0.00 1.42 0.00 89 1014.8
20260505201818 60 0 1.0 5.0 0.00 1.42 0.00 89 1014.8
20260505201327 60 0 2.0 4.0 0.00 1.42 0.00 89 1014.8
20260505200818 60 0 3.0 4.0 0.00 1.42 0.00 89 1014.8
20260505200318 60 0 1.0 3.0 0.00 1.42 0.00 89 1014.8
20260505195818 60 0 1.0 3.0 0.00 1.42 0.00 89 1014.8
20260505195318 60 0 1.0 3.0 0.00 1.42 0.00 89 1014.9
20260505194818 60 0 1.0 3.0 0.00 1.42 0.00 89 1014.9